User: anonymous   Login
Location: Unspecified
(0.0000°N, 0.0000°E)
Time: 10:35:59
(UTC+00:00)
Language:

N. Korean satellite - Orbit

View from above orbital plane
View from above orbital plane
View from above satellite
View from above satellite

Ground track
Ground track

The orbit data is extracted from the following two-line orbital elements,

1 39026U 12072A   19114.44846389 +.00001517 +00000-0 +57747-4 0  9992
2 39026 097.2119 119.3915 0036597 299.0914 060.6662 15.27669214353105
Epoch (UTC): 24 April 2019 10:45:47
Eccentricity: 0.0036597
inclination: 97.2119°
perigee height: 457 km
apogee height: 508 km
right ascension of ascending node: 119.3915°
argument of perigee: 299.0914°
revolutions per day: 15.27669214
mean anomaly at epoch: 60.6662°
orbit number at epoch: 35310

The dashed part of the orbit path shows where the satellite is in the earth's shadow,  

DLR